AirNav   TITAN Aviation Fuels
 
 1052 users online  

E95 Benson Municipal Airport
Benson, Arizona, USA

GOING TO BENSON?


FAA INFORMATION EFFECTIVE 09 SEPTEMBER 2021

Location

FAA Identifier: E95
Lat/Long: 31-59-58.0000N 110-21-28.7000W
31-59.966667N 110-21.478333W
31.9994444,-110.3579722
(estimated)
Elevation: 3830.9 ft. / 1167.7 m (surveyed)
Variation: 12E (1995)
From city: 3 miles NW of BENSON, AZ
Time zone: UTC -7 (year round; does not observe DST)
Zip code: 85602

Airport Operations

Airport use: Open to the public
Activation date: 11/1999
Control tower: no
ARTCC: ALBUQUERQUE CENTER
FSS: PRESCOTT FLIGHT SERVICE STATION
NOTAMs facility: PRC (NOTAM-D service available)
Attendance: CONTINUOUS
Wind indicator: lighted
Segmented circle: yes
Lights: ACTVT PAPI RWY 10 & 28; MIRL RWY 10/28 - CTAF.
Beacon: white-green (lighted land airport)
Operates sunset to sunrise.

Airport Communications

CTAF/UNICOM: 122.8
WX AWOS-3: 118.475 (520-265-5232)

Nearby radio navigation aids

VOR radial/distance  VOR name  Freq  Var
FHUr347/24.6LIBBY VOR/DME113.6013E
TUSr089/28.9TUCSON VORTAC116.0012E

Airport Services

Fuel available: 100LL JET-A
Parking: tiedowns
Airframe service: MAJOR
Powerplant service: MAJOR

Runway Information

Runway 10/28

Dimensions: 4002 x 75 ft. / 1220 x 23 m
Surface: asphalt, in good condition
Weight bearing capacity: 
Single wheel: 12.5
Runway edge lights: medium intensity
RUNWAY 10  RUNWAY 28
Latitude: 32-00.027858N31-59.906303N
Longitude: 110-21.858230W110-21.097155W
Elevation: 3830.9 ft.3803.8 ft.
Traffic pattern: leftleft
Runway heading: 089 magnetic, 101 true269 magnetic, 281 true
Markings: basic, in good conditionbasic, in good condition
Visual slope indicator: 2-light PAPI on left (3.00 degrees glide path)2-light PAPI on left (3.00 degrees glide path)
Runway end identifier lights: yesyes
Touchdown point: yes, no lightsyes, no lights
Obstructions: 2 ft. brush, 220 ft. from runway, 84 ft. left of centerline, 10:1 slope to clear
RWY 10 3-6 FT BRUSH 125-200 FT FM THLD, 100-125 FT RIGHT OF CNTRLN.
none
RWY 28 +4-6 FT BRUSH 0-50 FT FM THLD, 120-125 FT RIGHT OF CNTRLN; +4 FT BRUSH 130 FT FM THLD, 30 FT LEFT OF CNTRLN.

Airport Ownership and Management from official FAA records

Ownership: Publicly-owned
Owner: CITY OF BENSON
P.O BOX 2223
BENSON, AZ 85602
Phone 520-586-2245
Manager: BRAD HAMILTON
P.O BOX 2223
BENSON, AZ 85602
Phone 520-586-2245

Airport Operational Statistics

Aircraft based on the field: 18
Single engine airplanes: 15
Helicopters: 1
Ultralights: 2
    
Aircraft operations: avg 67/day *
61% transient general aviation
37% local general aviation
2% military
* for 12-month period ending 29 March 2020

Additional Remarks

RY 10 HAS FOUR 15 FT DITCHES BOTH SIDES OF RY ENDS & WEST HALF OF RY WITH HEADWALLS 130 FT SOUTH OF CENTERLINE.
RY 10, 110 FT TWY EXTENDS FM RY THRESHOLD TO WEST.
LIVESTOCK ON OR INVOF AIRPORT.
ERRATIC WIND CURRENTS .5 NM FM THRESHOLD WHEN WINDS ARE IN EXCESS OF 10 KTS.
FOR CD CTC TUCSON APCH AT 520-829-6121.

Instrument Procedures

There are no published instrument procedures at E95.

Some nearby airports with instrument procedures:

KFHU - Sierra Vista Municipal Airport-Libby Army Airfield (25 nm S)
P33 - Cochise County Airport (28 nm NE)
KDMA - Davis Monthan Air Force Base (29 nm W)
KTUS - Tucson International Airport (30 nm W)
KRYN - Ryan Field Airport (42 nm W)
 
Loc | Ops | Rwys | IFR | FBO | Links
Com | Nav | Svcs | Stats | Notes
Area around E95 (Benson Municipal Airport)
 
Road maps at: MapQuest Bing Google
 
Aerial photo
WARNING: Photo may not be current or correct
Aerial photo of E95 (Benson Municipal Airport)
Photo by Bryan Anderson
Photo taken 11-Nov-2019
looking north-northwest.

Do you have a better or more recent aerial photo of Benson Municipal Airport that you would like to share? If so, please send us your photo.

 
Sectional chart

 
Airport distance calculator
Flying to Benson Municipal Airport? Find the distance to fly.

From to E95

Sunrise and sunset
Times for 26-Sep-2021
 Local
(UTC-7)
 Zulu
(UTC)
Morning civil twilight05:4912:49
Sunrise06:1313:13
Sunset18:1201:12
Evening civil twilight18:3701:37

Current date and time
Zulu (UTC)  26-Sep-2021 21:58:14
Local (UTC-7)  26-Sep-2021 14:58:14
 
METAR
KALK 
24nm S 
262056Z AUTO 00000KT 10SM -RA FEW026 SCT080 BKN100 19/12 A3016 RMK AO2 RAB43 SLP138 P0000 60000 T01940122 55009
KFHU 
24nm S 
262149Z AUTO 32005KT 7SM -RA FEW060 SCT130 BKN170 BKN220 18/12 A3015 RMK AO2 LTG DSNT NE AND SW-W RAB49 SLP156
KDMA 
28nm W 
262058Z 31011KT 10SM CLR 27/11 A3004 RMK AO2A SLPNO ALSTG ESTMD RVRNO $
KTUS 
31nm W 
262153Z 35009KT 10SM CLR 28/12 A3003 RMK AO2 LTG DSNT SE-SW SLP130 T02780122
KRYN 
42nm W 
262150Z 35010KT 10SM CLR 27/13 A3001
KOLS 
43nm SW 
262154Z AUTO 35008G20KT 10SM VCTS FEW060 21/13 A3010 RMK AO2 LTG DSNT NE AND S AND NW SLP140 T02110133
TAF
KDMA 
28nm W 
261600Z 2616/2720 12009KT 9999 SCT050 BKN060 BKN080 QNH3007INS TEMPO 2616/2617 VRB10G20KT -TSRA BKN050CB BECMG 2616/2617 VRB06KT 9999 NSW SCT060 QNH3008INS BECMG 2617/2618 24009KT 9999 SCT050 BKN110 QNH3003INS BECMG 2620/2621 32010KT 9999 VCTS SCT060CB BKN090 QNH3002INS TEMPO 2621/2701 VRB18G28KT -TSRA BKN050CB BECMG 2701/2702 VRB06KT 9999 -SHRA BKN060 BKN140 QNH3001INS BECMG 2702/2703 VRB06KT 9999 NSW BKN070 BKN140 QNH3004INS BECMG 2715/2716 12006KT 9999 SCT070 BKN100 QNH3008INS TX28/2622Z TN18
NOTAMs
Click for the latest NOTAMs
NOTAMs are issued by the DoD/FAA and will open in a separate window not controlled by AirNav.

 

 
 

FBO, Fuel Providers, and Aircraft Ground Support

  
 Business Name 
 
 Contact 
 
 Services / Description 
 
Fuel Prices
 
Comments
  
 Southwestern Aviation, LLC
UNICOM 122.80
520-586-3262
[web site]
[email]
Aviation fuel, Aircraft parking (ramp or tiedown), Hangar leasing / sales, Flight training, Aircraft rental, Aviation accessories, Aircraft sales / leasing / brokerage, ...

More info about Southwestern Aviation, LLC
Avfuel
100LL Jet A
FS $4.49 $5.25 
 Updated 24-Sep-2021
 
   43 read write
FS=Full service
Update Fuel Prices
 

Aviation Businesses, Services, and Facilities

  
 Business Name 
 
 Contact 
 
 Services / Description 
 
Distance
 
Comments
  
 Plane Folks, LLC
520-488-3805
520-488-1042
[web site]
[email]
Hangar leasing / sales, Flight training, Aircraft rental, Aerial tours / aerial sightseeing

More info about Plane Folks, LLC
on airport  
   1 read write
 

Would you like to see your business listed on this page?

 If your business provides an interesting product or service to pilots, flight crews, aircraft, or users of the Benson Municipal Airport, you should consider listing it here.  To start the listing process, click on the button below
 
Add a business
 

Other Pages about Benson Municipal Airport

www.cityofbenson.com/index.asp?SEC=2E62F3FA-ABAE-44FB-BA5E-396DC2443B23&Type=B_BASIC
 
Update a link
 
Copyright © AirNav, LLC. All rights reserved. Privacy Policy  Contact